Location: Julian California
(33.0790°N, 116.6010°W)
Time: 23:13:48
(UTC-07:00)

Cosmos 1697 Rocket - Pass Details

Date: 23 March 2019
Orbit: 834 x 842 km, 71.0° (Epoch: 20 April)

Event Time Altitude Azimuth Distance (km) Brightness Sun altitude
Rises 05:00:26 0° 351° (N) 3,387 5.9 -22.7°
Reaches altitude 10° 05:03:11 10° 2° (N) 2,448 5.3 -22.1°
Maximum altitude 05:08:05 30° 62° (ENE) 1,453 4.6 -21.1°
Drops below altitude 10° 05:12:56 10° 123° (ESE) 2,434 5.6 -20.2°
Sets 05:15:39 0° 134° (SE) 3,364 6.3 -19.6°
